Regional Weather Roundup
Issued by NWS State College, PA

Home | Current Version | Previous Version | Graphics & Text | Print | Product List | Glossary On
Versions: 1 2 3 4 5 6 7 8 9 10 11 12 13 14 15 16 17 18 19 20 21 22 23 24 25 26 27 28 29 30 31 32 33 34 35 36 37 38 39 40 41 42 43 44 45 46 47 48 49 50
000
ASUS41 KCTP 172310
RWRCTP

REGIONAL WEATHER ROUNDUP
NATIONAL WEATHER SERVICE STATE COLLEGE PA
700 PM EDT WED SEP 17 2014

Note: "fair" indicates few or no clouds below 12,000 feet with no
significant weather and/or obstructions to visibility.

* = STATION THAT DOES NOT REPORT PRECIPITATION /E.G. RAIN...SNOW...ETC/
    THUNDER OR FOG.

PAZ002>004-007>009-013>016-020>023-029>032-180000-
WESTERN PENNSYLVANIA

CITY           SKY/WX    TMP DP  RH WIND       PRES   REMARKS
ERIE           PTCLDY    64  48  56 W5        29.99S
MEADVILLE      PTCLDY    60  49  66 NW5       29.99S
FRANKLIN*      CLEAR     61  45  55 CALM      30.01S
NEW CASTLE     FAIR      64  47  54 CALM      29.99F
BEAVER COUNTY  CLEAR     64  46  52 CALM      29.99S
BUTLER*        CLEAR     63  48  59 NW3       30.00S
PITTSBURGH INT PTCLDY    66  47  50 NW8       29.97F
PITTSBURGH     MOCLDY    67  46  47 NW3       29.97S
INDIANA*       CLEAR     64  50  59 CALM      30.02S
LATROBE        PTCLDY    66  48  52 CALM      29.99S
WASHINGTON CO* PTCLDY    61  54  77 CALM      29.98S
$$

PAZ004>006-010>012-017>019-024>028-033>037-041-042-045-046-049>053-180000-
CENTRAL PENNSYLVANIA

CITY           SKY/WX    TMP DP  RH WIND       PRES   REMARKS
BRADFORD       PTCLDY    59  43  55 CALM      30.00S
DUBOIS         CLEAR     59  47  64 CALM      29.99S
CLEARFIELD     CLEAR     63  46  54 W5        29.99S
JOHNSTOWN      CLEAR     60  46  59 NW6       30.00S
ALTOONA        MOCLDY    63  52  67 CALM      29.98S
STATE COLLEGE  PTCLDY    61  50  67 CALM      29.98S
WILLIAMSPORT   CLEAR     64  47  53 N3        29.96S
SELINSGROVE    PTCLDY    61  52  72 CALM      29.98S
FT INDIANTOWN  CLEAR     63  53  70 N1        29.98S
CAPITAL CITY   PTCLDY    69  46  43 CALM      29.97S
HARRISBURG     PTCLDY    67  54  63 CALM      29.96F
YORK           CLEAR     62  52  69 CALM      29.98R
$$

PAZ038>040-043-044-047-048-054-055-060>062-067>071-180000-
EASTERN PENNSYLVANIA

CITY           SKY/WX    TMP DP  RH WIND       PRES   REMARKS
SCRANTON       PTCLDY    64  41  42 SW7       29.98S
MOUNT POCONO   CLEAR     58  44  60 NW5       30.01R
ALLENTOWN      CLEAR     65  45  48 W5        29.98R
QUAKERTOWN*    CLEAR     66  50  55 CALM      29.99S
READING        CLEAR     67  46  47 NW5       29.97S
LANCASTER      MOCLDY    65  48  54 N3        29.98R
COATESVILLE    PTCLDY    64  50  59 CALM      29.99S
POTTSTOWN      CLEAR     65  50  58 CALM      29.99S
BLUE BELL      CLEAR     64  54  68 CALM      29.97S
DOYLESTOWN     PTCLDY    66  47  50 CALM      29.98R
WILLOW GROVE   NOT AVBL
NORTH PHILA    MOCLDY    71  43  36 NW5       29.99R
PHILADELPHIA   PTCLDY    72  48  42 SW7       29.98R
$$


USA.gov is the U.S. government's official web portal to all federal, state and local government web resources and services.